Hourly Weather Ouahigouya

Today, 7 August, Friday

Time Temperature Precipitation Wind Pressure Humidity
00:00 +30°C° 0 mm 5 mps 730 mmHg 68%
01:00 +29°C° 0.4 mm 5 mps 729 mmHg 71%
02:00 +28°C° 0.4 mm 5 mps 729 mmHg 74%
03:00 +27°C° 0.4 mm 5 mps 729 mmHg 77%
04:00 +27°C° 0.4 mm 5 mps 729 mmHg 79%
05:00 +27°C° 0.4 mm 5 mps 729 mmHg 82%
06:00 +27°C° 0 mm 5 mps 729 mmHg 82%
07:00 +27°C° 0.5 mm 5 mps 729 mmHg 81%
08:00 +28°C° 0.5 mm 6 mps 730 mmHg 79%
09:00 +28°C° 0.5 mm 6 mps 730 mmHg 78%
10:00 +28°C° 1 mm 6 mps 730 mmHg 77%
11:00 +29°C° 1 mm 6 mps 730 mmHg 77%
12:00 +29°C° 0 mm 6 mps 731 mmHg 77%
13:00 +28°C° 12.7 mm 6 mps 730 mmHg 79%
14:00 +27°C° 12.7 mm 7 mps 729 mmHg 81%
15:00 +26°C° 12.7 mm 8 mps 728 mmHg 83%
16:00 +27°C° 0 mm 6 mps 728 mmHg 81%
17:00 +27°C° 0 mm 5 mps 728 mmHg 80%
18:00 +28°C° 0 mm 3 mps 728 mmHg 78%
19:00 +27°C° 0 mm 3 mps 728 mmHg 80%
20:00 +27°C° 0 mm 2 mps 729 mmHg 82%
21:00 +27°C° 0 mm 2 mps 729 mmHg 84%
22:00 +27°C° 0 mm 2 mps 729 mmHg 84%
23:00 +27°C° 0 mm 3 mps 729 mmHg 85%

Tomorrow, 8 August, Saturday

Time Temperature Precipitation Wind Pressure Humidity
00:00 +27°C° 0 mm 3 mps 730 mmHg 85%
01:00 +27°C° 0.1 mm 4 mps 729 mmHg 86%
02:00 +27°C° 0.1 mm 4 mps 729 mmHg 87%
03:00 +26°C° 0.1 mm 5 mps 729 mmHg 88%
04:00 +26°C° 0 mm 5 mps 729 mmHg 88%
05:00 +26°C° 0 mm 5 mps 730 mmHg 89%
06:00 +26°C° 0 mm 5 mps 730 mmHg 89%
07:00 +26°C° 0 mm 5 mps 730 mmHg 87%
08:00 +26°C° 0 mm 5 mps 731 mmHg 84%
09:00 +27°C° 0 mm 4 mps 731 mmHg 82%
10:00 +27°C° 0 mm 5 mps 731 mmHg 79%
11:00 +28°C° 0 mm 6 mps 731 mmHg 76%
12:00 +29°C° 0 mm 6 mps 731 mmHg 73%
13:00 +29°C° 0 mm 6 mps 730 mmHg 70%
14:00 +30°C° 0 mm 6 mps 730 mmHg 67%
15:00 +32°C° 0 mm 6 mps 729 mmHg 64%
16:00 +30°C° 0 mm 6 mps 729 mmHg 67%
17:00 +30°C° 0 mm 6 mps 729 mmHg 69%
18:00 +29°C° 0 mm 5 mps 729 mmHg 71%
19:00 +28°C° 0 mm 5 mps 730 mmHg 74%
20:00 +28°C° 0 mm 5 mps 730 mmHg 77%
21:00 +27°C° 0 mm 5 mps 731 mmHg 80%
22:00 +27°C° 0.2 mm 5 mps 731 mmHg 81%
23:00 +26°C° 0.2 mm 6 mps 731 mmHg 82%

Day after tomorrow, 9 August, Sunday

Time Temperature Precipitation Wind Pressure Humidity
00:00 +26°C° 0.2 mm 6 mps 730 mmHg 84%
01:00 +26°C° 0 mm 6 mps 730 mmHg 85%
02:00 +25°C° 0 mm 5 mps 730 mmHg 86%
03:00 +25°C° 0 mm 5 mps 730 mmHg 87%
04:00 +25°C° 0 mm 5 mps 730 mmHg 87%
05:00 +25°C° 0 mm 5 mps 730 mmHg 88%
06:00 +23°C° 0 mm 5 mps 730 mmHg 88%
07:00 +25°C° 0 mm 5 mps 730 mmHg 84%
08:00 +26°C° 0 mm 6 mps 731 mmHg 80%
09:00 +27°C° 0 mm 6 mps 731 mmHg 76%
10:00 +29°C° 0 mm 6 mps 731 mmHg 70%
11:00 +30°C° 0 mm 6 mps 731 mmHg 65%
12:00 +33°C° 0 mm 6 mps 731 mmHg 59%
13:00 +33°C° 0.2 mm 6 mps 730 mmHg 58%
14:00 +33°C° 0.2 mm 6 mps 729 mmHg 58%
15:00 +33°C° 0.2 mm 5 mps 728 mmHg 58%
16:00 +33°C° 0.1 mm 5 mps 728 mmHg 60%
17:00 +32°C° 0.1 mm 5 mps 728 mmHg 62%
18:00 +32°C° 0.1 mm 4 mps 728 mmHg 64%
19:00 +30°C° 0.4 mm 4 mps 728 mmHg 67%
20:00 +30°C° 0.4 mm 4 mps 729 mmHg 70%
21:00 +29°C° 0.4 mm 4 mps 729 mmHg 73%
22:00 +29°C° 1.7 mm 4 mps 729 mmHg 75%
23:00 +28°C° 1.7 mm 5 mps 729 mmHg 76%

10 August, Monday

Time Temperature Precipitation Wind Pressure Humidity
00:00 +28°C° 1.7 mm 5 mps 729 mmHg 78%
01:00 +27°C° 0.3 mm 6 mps 728 mmHg 79%
02:00 +27°C° 0.3 mm 6 mps 728 mmHg 80%
03:00 +27°C° 0.3 mm 7 mps 727 mmHg 81%
04:00 +26°C° 1.1 mm 6 mps 728 mmHg 81%
05:00 +26°C° 1.1 mm 5 mps 728 mmHg 82%
06:00 +26°C° 1.1 mm 4 mps 728 mmHg 83%
07:00 +26°C° 1.7 mm 4 mps 729 mmHg 83%
08:00 +26°C° 1.7 mm 4 mps 729 mmHg 84%
09:00 +26°C° 1.7 mm 4 mps 729 mmHg 85%
10:00 +27°C° 0.5 mm 4 mps 729 mmHg 80%
11:00 +28°C° 0.5 mm 4 mps 729 mmHg 75%
12:00 +29°C° 0.5 mm 4 mps 729 mmHg 70%
13:00 +30°C° 0.3 mm 5 mps 728 mmHg 67%
14:00 +32°C° 0.3 mm 5 mps 727 mmHg 64%
15:00 +32°C° 0.3 mm 5 mps 727 mmHg 61%
16:00 +32°C° 0.3 mm 5 mps 727 mmHg 64%
17:00 +30°C° 0.3 mm 5 mps 726 mmHg 67%
18:00 +29°C° 0.3 mm 5 mps 726 mmHg 70%
19:00 +28°C° 0 mm 4 mps 727 mmHg 73%
20:00 +28°C° 0 mm 4 mps 728 mmHg 76%
21:00 +27°C° 0 mm 4 mps 728 mmHg 78%
22:00 +27°C° 0 mm 4 mps 728 mmHg 79%
23:00 +26°C° 0 mm 4 mps 729 mmHg 80%

11 August, Tuesday

Time Temperature Precipitation Wind Pressure Humidity
00:00 +26°C° 0 mm 3 mps 729 mmHg 80%
01:00 +26°C° 0 mm 3 mps 728 mmHg 82%
02:00 +26°C° 0 mm 3 mps 728 mmHg 84%
03:00 +26°C° 0 mm 3 mps 728 mmHg 86%
04:00 +25°C° 0.5 mm 4 mps 728 mmHg 87%
05:00 +25°C° 0.5 mm 4 mps 728 mmHg 88%
06:00 +25°C° 0.5 mm 4 mps 728 mmHg 89%
07:00 +25°C° 0.4 mm 4 mps 729 mmHg 88%
08:00 +25°C° 0.4 mm 4 mps 729 mmHg 88%
09:00 +25°C° 0.4 mm 4 mps 730 mmHg 87%
10:00 +26°C° 0.1 mm 5 mps 730 mmHg 83%
11:00 +27°C° 0.1 mm 5 mps 730 mmHg 79%
12:00 +28°C° 0.1 mm 6 mps 730 mmHg 74%
13:00 +28°C° 0 mm 6 mps 729 mmHg 72%
14:00 +29°C° 0 mm 6 mps 729 mmHg 70%
15:00 +29°C° 0 mm 6 mps 728 mmHg 69%
16:00 +29°C° 0 mm 6 mps 728 mmHg 71%
17:00 +28°C° 0 mm 5 mps 728 mmHg 73%
18:00 +28°C° 0 mm 5 mps 728 mmHg 76%
19:00 +27°C° 0 mm 5 mps 729 mmHg 77%
20:00 +27°C° 0 mm 4 mps 729 mmHg 79%
21:00 +27°C° 0 mm 4 mps 730 mmHg 81%
22:00 +26°C° 0 mm 4 mps 730 mmHg 82%
23:00 +26°C° 0 mm 4 mps 730 mmHg 83%

12 August, Wednesday

Time Temperature Precipitation Wind Pressure Humidity
00:00 +26°C° 0 mm 4 mps 730 mmHg 84%
01:00 +25°C° 0 mm 4 mps 730 mmHg 85%
02:00 +25°C° 0 mm 3 mps 730 mmHg 85%
03:00 +25°C° 0 mm 3 mps 729 mmHg 86%
04:00 +25°C° 0 mm 3 mps 730 mmHg 86%
05:00 +25°C° 0 mm 3 mps 730 mmHg 87%
06:00 +25°C° 0 mm 3 mps 730 mmHg 88%
07:00 +26°C° 0 mm 3 mps 730 mmHg 82%
08:00 +27°C° 0 mm 4 mps 731 mmHg 77%
09:00 +28°C° 0 mm 5 mps 731 mmHg 72%
10:00 +29°C° 0 mm 5 mps 731 mmHg 67%
11:00 +30°C° 0 mm 5 mps 731 mmHg 63%
12:00 +32°C° 0 mm 5 mps 731 mmHg 59%
13:00 +32°C° 0 mm 4 mps 730 mmHg 58%
14:00 +33°C° 0 mm 4 mps 729 mmHg 56%
15:00 +33°C° 0 mm 4 mps 728 mmHg 54%
16:00 +33°C° 0.1 mm 3 mps 728 mmHg 56%
17:00 +32°C° 0.1 mm 2 mps 728 mmHg 57%
18:00 +31°C° 0.1 mm 2 mps 728 mmHg 58%
19:00 +31°C° 0.6 mm 2 mps 729 mmHg 62%
20:00 +30°C° 0.6 mm 1 mps 729 mmHg 65%
21:00 +30°C° 0.6 mm 1 mps 730 mmHg 68%
22:00 +29°C° 0.7 mm 2 mps 730 mmHg 70%
23:00 +29°C° 0.7 mm 2 mps 730 mmHg 72%
Show more